Simultaneous Nadir Overpasses (SNOs) Predictions

Prediction of SNOs between METOP-B and TERRA Satellite Orbit:

Table of predicted SNOs for the next 14.0 days since TLE Epoch: 4/20/2013
Index Date (METOP-B) Time (METOP-B) Lat,Lon (METOP-B) SZA (METOP-B ) Date (TERRA) Time (TERRA) Lat,Lon (TERRA) SZA (TERRA ) Distance(km) Time Diff (sec)
1 04/21/2013 17:30:00 -81.29, 144.21 107.97 04/21/2013 17:30:05 -81.28, 144.40 107.95 3.11 5
2 04/21/2013 18:20:38 81.30, -47.67 72.12 04/21/2013 18:19:31 81.29, -47.84 72.07 3.01 67
3 04/24/2013 12:13:40 81.29, 43.23 71.13 04/24/2013 12:14:52 81.29, 43.26 71.16 0.47 72
4 04/24/2013 13:04:20 -81.30,-148.83 108.81 04/24/2013 13:04:18 -81.30,-148.81 108.81 0.94 2
5 04/24/2013 13:54:30 81.29, 30.33 72.64 04/24/2013 13:53:17 81.72, 29.76 72.74 49.15 73
6 04/27/2013 07:48:02 81.28, 109.37 70.20 04/27/2013 07:49:06 81.28, 109.56 70.25 3.19 64
7 04/27/2013 08:38:41 -81.30, -82.30 109.69 04/27/2013 08:38:32 -81.30, -82.49 109.71 3.09 9
8 04/30/2013 03:22:21 81.29, 176.26 69.40 04/30/2013 03:23:18 81.29, 176.14 69.41 1.93 57
9 04/30/2013 04:13:02 -81.29, -16.20 110.59 04/30/2013 04:12:45 -81.28, -16.26 110.61 1.25 17
10 05/02/2013 22:56:42 81.29,-117.28 68.58 05/02/2013 22:57:31 81.29,-117.37 68.59 1.44 49




NCC Satellite Simultaneous Nadir Overpasses (SNOs) Prediction Service
